Regional Weather Roundup
Issued by NWS Nashville, TN

Home | Current Version | Previous Version | Text Only | Print | Product List | Glossary On
Versions: 1 2 3 4 5 6 7 8 9 10 11 12 13 14 15 16 17 18 19 20 21 22 23 24 25 26 27 28 29 30 31 32 33 34 35 36 37 38 39 40 41 42 43 44 45 46 47 48 49 50
000
ASUS44 KOHX 291410
RWROHX
MIDDLE TENNESSEE HOURLY WEATHER ROUNDUP
NATIONAL WEATHER SERVICE NASHVILLE TN
900 AM CDT SAT APR 29 2017

NOTE: "FAIR" INDICATES FEW OR NO CLOUDS BELOW 12,000 FEET WITH
NO SIGNIFICANT WEATHER AND/OR OBSTRUCTIONS TO VISIBILITY.

* THESE REPORTS ARE NOT UNDER NWS QUALITY CONTROL AND MAY NOT
  REPORT WEATHER SUCH AS PRECIPITATION AND FOG.


TNZ005>011-023>034-057-059-062>066-078-080-291500
...NORTHERN MIDDLE TENNESSEE...

CITY           SKY/WX    TMP DP  RH WIND       PRES   REMARKS
CLARKSVILLE    PTSUNNY   76  68  76 SE5       30.00R
CROSSVILLE     CLOUDY    74  65  73 S9G20     30.13R
GALLATIN       SUNNY     77  68  73 S6        30.04S
DICKSON          N/A     76  68  76 S9        29.99R
LEBANON        MOSUNNY   77  67  71 S9        30.01R
NASHVILLE      PTSUNNY   77  68  73 S10       30.02R
PORTLAND       PTSUNNY   77  68  73 S12G18    30.02R
SMYRNA         CLOUDY    76  68  76 S8        30.03R
SPARTA         SUNNY     75  68  78 S8        30.06R
SPRINGFIELD    PTSUNNY   77  70  78 S7G14     30.00R
WEST NASHVILLE MOSUNNY   75  68  78 S8        30.00R
$$
TNZ056-058-060-061-075>077-079-093>097-291500
...SOUTHERN MIDDLE TENNESSEE...

CITY           SKY/WX    TMP DP  RH WIND       PRES   REMARKS
COLUMBIA       SUNNY    N/A N/A N/A S10       29.98S
FAYETTEVILLE   SUNNY     77  68  73 S14       30.04F
MCMINNVILLE    SUNNY     81  66  61 S10G21    30.06R
MURFREESBORO   CLOUDY    77  66  68 S14       30.01S
SHELBYVILLE    SUNNY     77  70  78 S10       30.04R
TULLAHOMA      SUNNY     75  64  69 S12       30.06S
WINCHESTER     SUNNY     79  68  69 S9        30.07S
$$


...KEY TO REMARKS...
VSB - VISIBILITY IN MILES
WCI - WIND CHILL INDEX
HX  - HEAT INDEX




USA.gov is the U.S. government's official web portal to all federal, state and local government web resources and services.